• Join FlightAware (Why Join?)
  • Login
  • US Flag 
11:21PM EST


 

Airport Tracker/Info


-or-


 

Live Flight TrackerFlight Track Log ✈ SWA208 ✈ 14-Apr-2014 ✈ KOAK - KONT

Flight Track Log - Related Links

Times and Time Zones

All times are in EDT time to prevent confusion due to time zone crossing. See the SWA208 flight status page for this flight to view local times or setup timezone preferences in your user account.

Time Position Orientation Groundspeed Altitude Reporting Facility
EDT Latitude Longitude Course Direction KTS MPH feet Rate Location/Type
11:16AM 37.7500 -122.2833 302° West 200 230 1,800  Level Northern Cal TRACON
11:18AM 37.7833 -122.3500 302° West 241 277 5,400 3,245 Climbing Northern Cal TRACON
11:18AM 37.7881 -122.3922 278° West 245 282 7,100 2,581 Climbing Oakland Center
11:19AM 37.7197 -122.4358 207° Southwest 292 336 9,400 1,426 Climbing Oakland Center
11:20AM 37.6375 -122.4625 194° South 298 343 10,000 732 Climbing Oakland Center
11:21AM 37.5553 -122.4897 195° South 300 345 10,900 1,839 Climbing Oakland Center
11:22AM 37.4733 -122.4972 184° South 301 346 13,800 2,607 Climbing Oakland Center
11:23AM 37.4142 -122.4153 132° Southeast 311 358 16,200 1,884 Climbing Oakland Center
11:24AM 37.3542 -122.3156 127° Southeast 343 395 17,600 1,561 Climbing Oakland Center
11:25AM 37.2906 -122.2094 127° Southeast 373 429 19,400 2,049 Climbing Oakland Center
11:26AM 37.2108 -122.0764 127° Southeast 391 450 21,800 2,066 Climbing Oakland Center
11:27AM 37.1414 -121.9633 128° Southeast 403 464 23,600 1,415 Climbing Oakland Center
11:28AM 37.0703 -121.8475 128° Southeast 413 475 24,700 1,268 Climbing Oakland Center
11:29AM 36.9931 -121.7264 129° Southeast 437 503 26,200 1,512 Climbing Oakland Center
11:30AM 36.9192 -121.6039 127° Southeast 439 505 27,800 1,366 Climbing Oakland Center
11:31AM 36.8400 -121.4806 129° Southeast 449 517 29,000 1,377 Climbing Oakland Center
11:32AM 36.7628 -121.3511 127° Southeast 456 525 30,600 1,415 Climbing Oakland Center
11:33AM 36.6858 -121.2269 128° Southeast 454 522 31,900 1,220 Climbing Oakland Center
11:34AM 36.6097 -121.1028 127° Southeast 453 521 33,100 1,377 Climbing Oakland Center
11:35AM 36.5167 -120.9536 128° Southeast 453 521 34,700 927 Climbing Oakland Center
11:36AM 36.4406 -120.8331 128° Southeast 448 516 35,000 146 Climbing Oakland Center
11:37AM 36.3639 -120.7083 127° Southeast 449 517 35,000  Level Oakland Center
11:38AM 36.2861 -120.5872 129° Southeast 449 517 35,000  Level Oakland Center
11:40AM 36.2089 -120.4633 128° Southeast 450 518 35,000  Level Oakland Center
11:41AM 36.1311 -120.3394 128° Southeast 450 518 35,000  Level Oakland Center
11:42AM 36.0525 -120.2167 128° Southeast 451 519 35,000  Level Oakland Center
11:43AM 35.9739 -120.0939 128° Southeast 452 520 35,000  Level Oakland Center
11:44AM 35.8942 -119.9694 128° Southeast 457 526 35,000  Level Oakland Center
11:45AM 35.8153 -119.8478 129° Southeast 457 526 35,000  Level Oakland Center
11:46AM 35.7344 -119.7233 129° Southeast 459 528 35,000  Level Oakland Center
11:47AM 35.6489 -119.5661 124° Southeast 461 531 35,000  Level Oakland Center
11:48AM 35.6108 -119.4158 107° East 459 528 35,000 -439 Level Oakland Center
11:49AM 35.5725 -119.2672 108° East 459 528 34,100 -927 Descending Oakland Center
11:50AM 35.5333 -119.1203 108° East 459 528 33,100 -927 Descending Oakland Center
11:51AM 35.4947 -118.9747 108° East 453 521 32,200 -878 Descending Oakland Center
11:52AM 35.4558 -118.8242 108° East 456 525 31,300 -927 Descending Oakland Center
11:53AM 35.3628 -118.7231 138° Southeast 459 528 30,300 -976 Descending Oakland Center
11:54AM 35.2419 -118.6867 166° South 451 519 29,300 -1,042 Descending Oakland Center
11:55AM 35.0783 -118.6381 166° South 433 498 27,800 -1,034 Descending Los Angeles Center
11:56AM 34.9789 -118.5672 150° Southeast 431 496 26,800 -968 Descending Los Angeles Center
11:57AM 34.8956 -118.4447 130° Southeast 425 489 25,800 -968 Descending Los Angeles Center
11:58AM 34.8192 -118.3369 131° Southeast 425 489 24,800 -968 Descending Los Angeles Center
11:59AM 34.7458 -118.2297 130° Southeast 420 483 23,800 -1,008 Descending Los Angeles Center
12:00PM 34.6736 -118.1258 130° Southeast 412 474 22,700 -1,104 Descending Los Angeles Center
12:01PM 34.6033 -118.0047 125° Southeast 372 428 21,500 -1,306 Descending Los Angeles Center
12:02PM 34.5539 -117.8953 119° Southeast 372 428 20,000 -1,548 Descending Los Angeles Center
12:04PM 34.5039 -117.7872 119° Southeast 371 427 18,300 -1,500 Descending Los Angeles Center
12:05PM 34.4558 -117.6825 119° Southeast 362 417 16,900 -1,161 Descending Los Angeles Center
12:06PM 34.4119 -117.5856 119° Southeast 333 383 15,900 -1,016 Descending Los Angeles Center
12:07PM 34.3606 -117.4756 119° Southeast 327 376 14,800 -1,258 Descending Los Angeles Center
12:08PM 34.3169 -117.3792 119° Southeast 328 377 13,300 -1,632 Descending Los Angeles Center
12:09PM 34.2414 -117.3442 159° South 307 353 11,400 -2,256 Descending Los Angeles Center
12:10PM 34.1483 -117.3550 186° South 277 319 8,600 -2,328 Descending Los Angeles Center
12:11PM 34.0833 -117.3667 188° South 243 280 6,900 -1,474 Descending Southern California TRACON
12:12PM 34.0500 -117.4000 220° Southwest 204 235 5,800 -1,728 Descending Southern California TRACON
12:13PM 34.0500 -117.4667 270° West 194 223 3,300 -1,884 Descending Southern California TRACON
12:14PM 34.0500 -117.5167 270° West 176 203 2,000 -1,148 Descending Southern California TRACON
12:15PM 34.0500 -117.5833 270° West 153 176 1,100 -915 Descending Southern California TRACON
12:17PM 34.0500 -117.6000 270° West  Level FlightAware Approximate
12:24PM 34.0560 -117.6012 270° West  Level Estimated
12:25PM 34.0500 -117.6000 270° West  Level FlightAware Approximate
12:26PM 34.0560 -117.6012 270° West  Level Estimated
12:27PM 34.0500 -117.6000 270° West  Level FlightAware Approximate